Location: Camp Creek
(33.9000°N, 111.8167°W)
Time: 07:38:37
(UTC-07:00)

Cosmos 1656 - Visible Passes

Search period start: 10 December 2016 00:00
Search period end: 20 December 2016 00:00
Orbit: 798 x 850 km, 71.1° (Epoch: 09 December)

Date Brightness Start Highest point End Pass type
(mag) Time Alt. Az. Time Alt. Az. Time Alt. Az.
13 Dec 6.0 06:56:34 10° NNE 07:00:30 19° ENE 07:04:26 10° ESE visible
14 Dec 6.1 06:36:32 10° NNE 06:39:58 16° ENE 06:43:24 10° E visible
15 Dec 6.2 06:16:38 10° NNE 06:19:25 14° NE 06:22:12 10° E visible
16 Dec 6.3 05:57:00 10° NE 05:58:52 11° NE 06:00:43 10° ENE visible
18 Dec 4.2 06:56:44 10° NNW 07:02:24 65° ENE 07:08:02 10° SSE visible
19 Dec 4.4 06:36:23 10° N 06:41:58 55° ENE 06:47:31 10° SE visible
